GFSNW_sfc_temp_057.txt.gz
Temp
55 55 55 54 53 52 48 44 49 61 62 53 46 47 54 61 65 66 65 63 62 60 63 58 58 60 66 75 69 62 61 57 55 62 68 71 65 61 58 51 49 46 48 51
55 55 55 54 53 52 44 43 47 61 63 48 48 51 59 64 63 64 62 62 65 64 61 54 61 64 73 74 70 60 61 52 50 56 60 65 61 61 57 52 49 47 48 52
55 55 55 54 54 53 46 43 48 54 57 51 54 51 55 58 69 66 66 65 63 59 55 56 56 62 71 73 71 66 64 50 54 51 55 61 61 64 62 55 50 49 52 53
55 55 55 55 54 53 45 43 49 52 48 54 54 55 57 57 58 66 64 58 64 61 51 53 54 59 63 70 68 66 61 54 51 56 62 64 64 65 65 58 56 55 57 55
55 55 55 55 53 52 44 49 50 55 53 52 52 50 55 59 63 62 61 58 63 60 55 58 54 57 53 56 64 59 57 53 52 53 62 63 63 67 66 65 62 60 57 56
56 56 55 55 53 50 44 50 54 53 51 53 49 51 56 60 61 64 65 64 62 60 64 66 62 62 61 59 54 57 55 52 50 49 56 59 54 61 63 63 62 59 54 61
56 56 56 55 53 50 42 44 46 47 48 50 55 59 61 61 62 61 65 64 59 65 68 67 61 57 57 61 58 57 55 51 49 48 50 43 59 66 68 65 64 61 61 64
56 56 56 55 54 53 42 43 46 45 45 51 57 58 59 59 58 60 62 66 64 62 63 56 52 53 56 57 63 57 57 51 49 47 44 53 61 63 62 58 60 62 60 63
56 56 56 56 55 53 42 42 46 45 45 50 58 57 57 53 53 58 63 67 62 62 53 52 43 45 49 51 58 53 52 51 53 44 44 44 54 64 66 64 53 63 61 61
56 56 56 56 56 53 45 44 46 45 43 50 51 54 54 57 53 52 54 57 58 57 50 50 47 47 54 49 47 49 48 45 47 45 45 50 55 59 64 50 50 55 58 57
56 55 55 56 56 55 46 45 47 48 43 47 55 59 53 55 53 50 54 55 55 52 49 48 46 47 50 47 48 45 46 44 42 44 43 44 58 59 51 51 53 57 59 60
55 55 55 55 55 55 51 42 51 51 47 50 54 60 63 62 61 55 52 53 51 52 50 48 46 48 46 44 43 51 45 47 45 47 45 54 56 53 55 53 54 57 56 59
55 55 55 55 55 54 51 40 42 46 44 48 51 56 62 56 60 61 54 52 56 53 53 50 49 46 47 44 46 48 51 51 47 47 52 53 56 55 56 57 57 59 60 62
55 55 55 55 54 53 53 40 42 43 43 40 50 61 58 65 63 62 60 59 55 53 54 49 47 48 51 46 49 49 50 52 48 48 52 55 55 54 55 57 59 60 61 61
55 55 55 55 54 53 47 41 43 46 45 42 45 52 58 59 63 64 58 56 52 50 50 48 48 49 50 48 49 49 50 50 46 45 52 50 51 54 57 56 57 59 58 59
55 55 54 54 53 52 42 44 46 46 46 44 43 51 54 57 58 57 54 54 50 50 49 48 48 51 50 45 45 52 53 53 52 51 53 53 55 56 59 58 57 58 59 61
54 54 53 53 52 42 43 45 48 48 45 44 44 46 53 57 55 54 54 52 51 51 46 48 48 50 50 45 44 52 54 54 53 54 54 52 54 54 58 59 60 60 60 60
53 53 53 52 52 49 44 47 51 48 44 46 42 45 51 54 51 51 51 51 49 50 49 46 48 48 46 44 50 52 55 54 54 55 55 54 54 55 56 59 59 58 58 59
53 53 53 48 45 42 48 57 54 47 49 43 42 43 44 54 49 49 52 50 48 50 47 46 49 43 44 47 49 52 54 53 54 56 55 55 55 55 56 58 58 57 57 58
53 49 46 44 49 57 57 50 47 46 44 42 41 43 46 51 47 46 49 48 45 45 47 48 44 41 47 48 48 52 56 56 56 52 51 52 53 55 56 58 59 59 60 59
46 43 44 52 57 52 47 45 43 42 41 41 44 46 46 52 48 45 46 44 44 43 46 46 41 42 47 51 50 53 56 57 57 56 57 54 54 56 56 57 59 58 59 59
47 47 49 49 49 47 44 42 44 44 44 45 44 47 48 50 49 48 45 44 45 42 46 45 40 44 47 48 52 54 54 57 58 58 58 58 59 57 56 58 57 57 58 58
49 46 46 46 45 36 41 39 42 41 46 47 46 47 49 49 49 46 46 45 43 47 43 41 42 44 47 48 50 53 56 58 58 59 60 61 60 60 58 56 57 57 56 57
44 44 36 40 39 42 44 45 45 47 49 48 46 46 47 45 48 44 46 47 47 41 38 41 41 44 46 47 50 52 52 55 58 57 57 57 58 58 60 57 56 57 57 56
43 46 39 43 48 47 47 47 47 51 50 48 48 47 46 44 46 44 44 43 42 42 40 41 44 45 46 49 52 53 55 55 55 53 53 54 55 54 53 54 53 53 53 52
45 45 44 48 44 45 45 48 48 49 48 48 48 45 45 43 44 44 43 43 41 41 42 44 45 47 48 52 54 54 55 52 51 51 52 53 53 53 52 52 52 52 51 50
47 45 48 46 47 47 46 48 49 49 50 45 45 45 43 44 42 42 42 42 42 44 45 46 47 47 49 50 52 52 52 51 51 51 52 52 52 52 52 50 50 50 50 49

GFSNW_sfc_temp_060.txt.gz
Temp
55 55 55 54 53 52 47 41 48 56 55 50 40 45 51 58 62 63 63 59 58 57 59 56 56 57 62 70 65 60 57 54 51 61 64 66 62 58 54 50 47 44 47 51
56 55 55 54 53 52 45 40 43 56 57 45 43 47 56 60 60 61 58 58 62 60 56 52 58 61 70 70 65 58 58 51 48 54 58 60 60 58 53 49 47 45 47 52
56 55 55 54 53 53 46 42 45 52 52 48 47 49 52 55 65 63 62 62 59 56 53 53 54 59 67 69 66 66 62 48 51 50 54 57 56 61 58 54 49 48 50 56
56 56 55 55 54 53 45 43 47 53 50 50 48 50 55 55 56 61 61 54 60 58 49 51 51 56 62 67 66 60 59 52 48 53 58 60 61 63 62 56 55 55 56 55
56 56 55 55 54 52 43 47 48 51 51 49 51 49 52 56 59 58 57 55 61 59 54 57 55 56 52 54 61 56 54 51 49 51 60 61 60 63 64 62 58 58 57 57
56 56 56 55 53 49 42 49 51 47 48 49 48 51 55 59 59 63 64 62 58 58 61 63 59 60 60 56 54 55 53 51 49 47 54 57 53 58 61 63 61 60 55 62
56 56 56 55 53 49 41 42 45 45 47 48 52 57 59 60 61 58 64 62 60 62 67 66 61 59 57 59 56 55 52 48 46 47 49 42 56 63 63 63 60 59 60 62
55 56 56 55 54 52 42 41 43 44 43 52 54 58 57 58 58 58 61 64 62 59 62 57 54 54 54 56 58 53 52 49 46 46 43 52 58 59 57 54 52 55 52 57
56 56 56 56 55 53 42 40 42 43 43 51 57 54 56 52 50 55 60 64 61 61 54 54 46 47 50 51 54 52 51 48 50 42 43 43 50 58 62 59 50 56 55 56
56 56 56 56 56 53 44 42 43 44 42 49 51 52 52 54 50 49 51 56 56 55 49 47 45 46 52 47 45 46 46 44 45 43 44 48 54 57 60 50 50 54 56 56
56 56 56 56 56 55 45 42 45 45 42 47 53 59 52 53 50 48 52 52 53 50 46 46 44 45 47 45 46 43 44 42 41 41 41 41 57 58 52 52 53 55 56 58
55 56 56 56 55 54 47 39 48 47 44 48 51 58 62 60 60 53 49 52 50 52 49 46 45 46 45 43 42 49 44 46 44 45 45 53 54 53 55 54 56 57 58 59
55 56 56 55 55 54 50 38 40 43 42 47 48 54 56 54 58 59 53 51 53 53 51 49 46 47 46 43 46 47 49 50 46 47 52 52 55 56 55 56 55 57 59 59
55 56 56 55 54 53 52 39 41 42 42 39 48 59 54 58 57 58 56 56 51 51 51 48 47 49 50 47 51 49 53 52 49 50 52 53 54 55 55 56 58 58 60 60
55 55 55 55 54 53 46 40 41 44 45 41 44 51 55 56 60 60 56 54 49 48 49 47 47 49 51 47 49 48 51 52 49 45 52 52 52 55 57 57 57 57 56 57
55 55 54 54 53 50 42 42 42 42 44 41 40 50 52 56 59 57 54 51 48 47 47 46 47 49 50 45 44 52 52 52 52 51 54 54 55 56 58 57 57 59 59 59
54 54 53 53 52 44 43 44 45 46 43 42 41 44 51 53 51 51 51 48 47 49 45 45 46 48 48 45 44 53 53 54 54 54 54 54 56 54 58 58 59 59 59 59
54 53 53 52 52 50 46 48 51 47 42 43 39 43 49 51 49 49 46 47 47 47 45 45 46 47 45 44 49 49 52 54 54 56 55 55 55 55 56 57 58 57 57 59
53 53 53 48 45 43 48 56 53 45 46 41 40 42 43 51 45 46 48 46 45 46 44 44 46 41 43 45 45 47 54 53 54 57 56 55 54 54 55 56 57 56 56 58
52 49 46 43 47 56 55 50 46 43 42 41 40 40 45 49 45 44 46 44 42 43 45 46 42 41 46 48 48 47 50 54 55 53 54 55 54 55 55 56 56 57 58 58
42 42 43 50 56 50 47 43 41 40 39 40 43 44 46 49 47 44 43 42 41 41 44 45 41 41 46 48 49 51 52 54 56 56 56 55 55 55 55 55 56 56 56 56
46 46 49 48 47 46 42 39 41 40 42 44 44 47 47 48 47 46 43 42 43 40 44 44 40 44 46 48 50 52 52 56 57 58 57 57 58 57 55 57 57 57 57 57
48 46 46 45 44 34 38 36 38 39 45 46 45 46 47 46 47 44 44 43 41 45 42 41 41 44 47 48 49 52 54 56 56 56 58 58 57 58 56 56 57 57 56 56
43 43 36 39 37 38 41 43 45 49 48 45 45 44 45 43 46 43 44 43 45 39 37 40 42 43 46 47 50 52 54 56 55 55 55 56 57 57 57 56 56 55 53 53
42 44 37 40 46 46 48 48 45 47 46 46 46 45 45 43 45 42 42 41 41 41 40 41 43 45 46 49 51 52 52 53 55 55 55 54 55 54 53 54 53 53 52 51
43 43 42 44 44 44 45 46 45 47 47 47 47 44 45 42 43 43 42 42 40 41 41 43 45 46 47 49 54 54 55 54 54 54 53 54 53 52 51 52 52 51 51 50
45 43 47 45 46 46 45 46 47 47 49 46 45 44 42 42 40 40 42 41 42 43 44 45 45 46 48 50 51 53 53 52 51 51 52 52 52 52 51 49 50 50 50 50

GFSNW_sfc_temp_063.txt.gz
Temp
56 55 55 54 53 52 51 54 58 63 64 62 56 59 61 59 70 71 70 70 69 67 68 68 69 70 74 76 77 72 75 74 69 74 77 78 78 76 74 69 61 64 66 71
56 55 55 54 53 52 48 52 54 65 64 57 58 60 63 66 68 69 68 67 70 71 68 64 69 71 77 77 76 73 73 68 67 68 73 74 74 73 73 68 68 62 66 72
56 55 55 54 54 52 50 51 55 61 62 59 59 60 61 62 69 68 70 69 71 68 67 68 67 70 75 76 74 65 72 65 67 67 69 73 70 71 71 73 68 67 71 73
56 56 55 55 54 52 51 53 56 56 57 59 60 61 61 60 60 68 68 66 67 67 64 66 66 70 74 76 69 72 72 66 66 69 70 71 73 73 71 70 72 72 73 72
56 56 56 55 53 51 52 52 53 57 57 58 58 55 59 59 63 64 65 63 68 67 65 68 66 70 69 71 75 71 69 66 66 69 70 71 71 73 72 72 70 71 71 72
56 56 56 55 52 51 52 56 57 55 54 57 58 60 61 62 64 68 71 69 66 64 70 73 73 74 72 71 70 68 67 67 66 64 66 69 67 69 72 72 70 68 71 69
56 56 56 55 53 51 50 52 51 52 56 56 60 61 61 60 64 62 69 69 67 69 74 73 74 74 72 71 68 68 64 63 64 65 64 56 66 71 72 67 63 65 66 66
56 56 56 55 54 50 51 52 51 52 52 56 61 60 62 63 63 62 66 69 68 68 71 67 62 64 66 66 65 66 65 64 63 61 60 62 65 64 63 63 63 63 63 66
56 56 56 56 55 52 50 51 51 52 50 57 59 58 60 60 60 63 66 70 67 69 66 64 55 56 59 61 63 64 63 63 65 58 56 54 60 64 65 65 63 65 63 64
56 57 56 56 56 53 51 53 51 52 50 58 59 59 57 63 61 58 59 61 63 66 62 58 56 58 60 58 58 59 61 61 60 60 59 59 64 64 66 58 61 64 64 64
56 56 56 56 56 55 52 52 52 53 52 55 59 63 60 63 62 58 62 62 64 65 60 60 59 58 59 58 56 56 57 57 59 57 56 54 64 65 60 61 63 63 64 63
56 56 56 56 55 54 50 51 56 55 50 56 58 63 66 66 67 62 62 60 59 62 61 59 59 59 57 55 52 58 54 59 56 56 58 61 64 62 63 63 61 63 63 65
55 56 56 56 55 54 52 51 52 54 51 56 58 63 65 65 65 71 62 63 63 62 62 64 62 58 62 56 59 58 59 59 58 57 61 63 64 64 64 64 62 64 65 65
55 56 56 55 55 54 52 51 53 52 52 49 60 66 64 68 66 67 69 66 61 62 63 63 61 62 61 61 61 62 63 61 60 61 63 63 64 64 64 63 64 65 66 65
55 55 55 55 54 53 51 50 53 54 53 51 55 62 65 67 66 68 66 65 64 66 63 62 61 62 60 61 62 62 64 62 63 60 62 62 63 64 65 63 64 65 65 65
55 55 55 54 54 52 50 50 51 52 54 51 51 62 62 67 67 66 64 65 63 65 65 64 63 60 62 60 59 63 63 62 65 62 63 63 65 65 65 63 65 66 64 65
54 54 54 53 53 52 50 50 53 51 53 51 51 57 64 63 64 64 64 61 62 64 62 63 64 63 64 63 59 65 67 67 64 64 63 64 63 63 64 64 65 64 66 65
54 53 53 53 52 51 52 54 52 53 52 52 49 54 60 63 63 62 60 63 63 60 61 61 63 61 62 60 59 62 63 64 64 66 66 65 65 64 64 65 65 64 64 64
53 53 53 54 52 50 53 54 55 54 54 51 51 53 55 64 61 61 62 62 61 61 62 62 60 60 59 57 57 59 61 62 64 66 68 67 64 64 64 65 65 64 64 64
52 51 50 48 53 56 55 53 51 51 53 51 51 57 57 63 60 59 60 60 59 57 59 61 60 59 57 59 59 59 59 61 64 63 65 65 64 63 63 63 65 66 65 63
47 46 49 56 56 53 51 49 48 50 48 50 54 56 59 61 60 58 58 58 57 55 56 58 56 56 57 59 59 61 62 63 65 65 66 66 65 64 64 64 65 65 65 64
51 53 53 55 52 49 45 45 48 47 49 50 52 57 59 59 59 60 57 56 56 51 57 56 53 54 56 57 59 61 63 65 65 66 66 66 66 65 64 63 61 62 62 62
54 50 48 49 48 37 40 40 45 46 52 51 52 54 58 56 60 56 57 54 54 58 54 53 54 54 57 56 59 61 64 65 64 64 64 66 66 66 66 65 65 64 61 62
47 47 37 44 42 45 48 50 52 55 54 52 55 54 56 57 57 57 54 55 57 50 47 50 54 55 56 57 60 61 60 62 63 63 64 64 65 65 65 66 66 65 63 62
47 48 38 44 51 53 54 56 53 54 55 55 55 55 56 55 54 56 53 50 49 51 51 53 55 55 56 58 59 60 58 58 58 59 61 61 63 63 62 63 63 63 61 60
46 46 45 50 49 52 53 54 54 57 55 57 57 53 54 52 55 53 52 51 48 52 54 55 55 55 57 58 58 55 57 57 59 61 61 62 62 61 60 61 61 61 60 59
46 46 51 50 51 51 55 55 57 57 57 55 54 52 50 53 52 51 54 52 54 54 56 55 56 57 58 59 59 59 57 55 59 61 62 62 61 61 60 58 58 59 59 59

GFSNW_sfc_temp_069.txt.gz
Temp
57 57 56 55 54 53 62 75 71 85 87 71 76 72 76 70 81 86 81 81 79 77 80 77 79 81 85 91 93 85 91 86 77 83 92 94 92 86 85 75 71 79 78 77
57 57 56 55 54 53 65 70 76 86 83 67 73 78 77 80 78 79 79 78 81 83 77 72 79 83 89 89 89 85 90 81 73 76 86 91 85 88 89 87 84 74 72 75
57 57 57 56 55 54 61 69 69 78 77 80 72 72 73 73 81 79 81 80 82 79 76 81 75 80 87 88 90 72 83 83 77 73 77 85 80 84 87 85 77 77 80 81
57 57 57 56 55 54 61 72 72 74 70 71 75 74 72 70 72 80 80 76 77 76 71 75 76 81 84 88 72 84 86 74 81 83 84 84 84 84 85 83 83 78 78 72
57 57 57 56 55 54 65 68 70 75 72 73 70 65 68 69 74 76 74 74 77 80 74 75 74 80 81 81 87 84 87 74 80 78 85 84 82 86 86 86 86 85 85 69
57 57 57 56 54 54 71 77 76 70 65 73 71 72 68 70 74 77 80 80 79 77 80 85 87 90 88 86 82 80 79 77 74 70 80 81 74 81 84 86 87 86 77 80
57 57 57 56 55 53 70 72 69 66 66 71 69 71 73 73 75 72 78 81 77 81 88 88 88 90 87 86 85 86 76 74 75 71 67 51 77 87 89 84 84 86 85 81
57 57 57 57 56 54 65 73 69 67 64 74 73 71 68 75 77 76 78 80 82 87 82 75 70 74 75 79 84 81 84 76 71 67 69 75 77 80 82 81 77 81 81 82
57 57 57 57 56 55 62 73 73 67 65 70 72 70 72 70 71 76 78 85 87 86 80 75 63 63 69 69 74 82 81 77 72 70 63 61 68 77 82 82 71 77 78 77
57 57 57 57 56 55 61 71 70 67 63 73 72 69 68 75 74 73 75 75 79 84 75 67 67 63 70 66 66 68 72 70 68 68 65 72 76 78 81 67 66 75 77 76
57 57 57 57 57 57 60 72 74 66 65 71 74 75 70 73 75 69 65 74 77 75 66 69 67 63 62 69 70 67 68 66 68 69 64 60 77 78 68 66 73 74 75 75
57 57 57 57 57 57 56 68 75 74 63 68 75 76 78 77 76 72 76 72 69 70 68 67 73 68 73 67 63 72 62 70 62 64 61 72 77 72 74 76 74 74 74 75
56 57 57 57 56 56 55 68 70 68 63 69 74 75 83 87 84 86 70 79 71 70 72 69 71 64 62 64 64 68 72 75 67 68 71 73 75 77 78 77 75 77 77 78
56 56 57 56 56 55 54 67 72 67 64 62 74 84 78 85 86 82 82 78 79 77 76 71 72 66 69 70 68 67 68 56 72 71 73 75 76 76 76 76 77 77 78 77
56 56 56 56 55 55 58 68 71 70 62 59 66 78 84 85 82 79 80 78 75 77 75 73 71 79 77 78 78 74 71 71 68 59 73 73 72 75 77 76 75 77 75 76
55 55 56 55 55 54 58 65 71 71 68 60 63 83 77 80 80 79 77 78 76 77 75 75 78 79 73 69 66 74 76 63 78 70 77 76 76 76 77 75 76 76 75 76
54 54 54 54 54 62 63 60 63 57 67 59 62 71 79 81 79 80 79 78 77 77 75 74 75 76 73 71 66 72 77 79 76 78 77 74 76 74 77 78 77 74 76 76
54 53 54 54 54 55 61 71 56 63 65 65 60 68 73 80 74 72 80 76 78 76 74 77 74 76 74 67 72 75 73 77 77 78 79 77 78 78 78 79 78 76 75 73
53 53 54 57 55 63 68 57 58 65 63 58 64 64 65 80 75 78 77 78 69 79 71 73 75 71 66 70 71 74 76 75 77 78 79 79 77 76 77 77 77 74 70 71
53 53 52 58 68 56 60 61 61 61 63 61 58 72 68 76 74 72 72 74 70 66 72 80 70 69 74 77 75 76 75 77 79 74 73 74 74 75 75 75 74 71 67 68
50 46 52 69 58 67 64 59 59 62 57 60 65 69 69 79 69 69 75 71 72 63 69 68 68 69 72 74 74 77 77 77 79 79 79 79 78 76 73 73 70 66 64 65
53 54 63 66 64 57 55 55 61 60 57 62 63 69 73 76 78 70 72 66 70 60 75 68 63 63 72 74 74 75 76 79 78 79 77 78 76 76 74 74 72 68 64 65
58 55 55 55 56 42 48 48 56 58 65 64 63 66 72 74 74 70 69 62 63 77 66 64 67 68 71 72 76 75 78 78 78 77 78 77 74 76 74 75 77 75 73 74
53 50 40 49 51 56 59 61 63 70 69 65 63 66 68 72 67 69 61 67 72 60 58 62 69 68 70 72 77 76 74 74 76 76 76 74 73 74 74 74 76 75 73 73
49 55 43 54 64 67 71 70 68 72 71 68 65 66 70 67 65 68 65 60 57 62 63 69 70 69 70 70 71 73 72 73 74 73 73 72 74 74 73 73 75 75 75 72
57 57 56 62 63 64 64 66 66 68 70 71 69 64 61 62 65 61 59 58 58 66 71 73 69 67 69 69 71 72 71 70 69 71 68 71 72 70 70 71 74 74 72 68
52 57 66 63 61 63 65 69 64 70 68 62 64 59 59 66 60 60 67 64 68 71 73 74 70 68 68 69 70 70 70 70 71 69 68 68 72 71 70 67 68 70 69 66

GFSNW_sfc_temp_072.txt.gz
Temp
58 58 57 56 54 53 62 73 68 88 91 71 73 69 74 69 80 85 82 81 78 75 77 75 75 75 79 86 87 84 89 84 75 79 90 94 89 84 83 73 68 75 73 74
58 58 57 56 54 53 63 66 74 90 86 65 70 77 78 80 79 80 79 77 80 81 75 70 77 79 86 88 86 80 85 79 70 74 83 88 84 86 86 84 80 70 68 74
58 58 58 57 55 55 60 68 68 79 80 78 72 70 72 73 82 79 80 78 80 78 75 79 74 77 84 89 88 73 83 79 73 69 75 82 76 84 86 83 73 74 76 69
58 58 58 57 56 55 60 70 71 76 61 72 74 74 73 71 71 80 81 75 76 74 69 73 73 79 82 86 78 85 83 71 76 81 83 83 80 80 83 80 81 75 78 68
57 58 58 58 56 54 62 66 68 73 70 72 71 67 69 70 72 71 71 72 75 76 72 73 71 77 78 77 83 76 81 71 76 74 82 82 79 83 83 83 84 83 83 70
57 58 58 58 56 54 69 76 75 70 63 70 71 71 70 72 75 76 78 76 75 72 77 83 86 87 85 84 79 74 70 74 71 67 67 68 68 80 77 83 85 83 75 74
57 57 58 58 58 55 67 70 71 65 62 70 69 69 70 73 73 70 75 77 75 81 88 87 86 86 85 86 84 77 59 61 71 67 71 59 71 80 77 81 78 75 69 62
57 57 58 58 58 56 63 70 69 65 61 69 71 71 67 75 74 73 74 78 82 86 82 74 69 70 72 78 83 81 78 73 68 64 66 70 68 66 64 73 63 76 60 64
57 57 58 58 57 56 61 70 75 68 62 65 71 70 73 69 69 72 73 79 84 84 77 72 61 61 67 67 73 83 82 78 70 66 60 57 55 57 60 70 60 72 77 75
57 58 58 58 57 56 59 67 72 67 61 69 71 68 67 73 71 68 73 74 75 82 74 60 59 61 72 65 64 67 70 70 66 66 63 69 73 71 77 60 59 74 75 73
57 57 58 58 58 57 60 67 75 67 62 67 71 75 69 71 72 66 71 71 76 74 66 49 54 53 66 64 55 62 60 58 66 68 64 59 74 75 65 68 71 73 74 74
57 57 57 58 58 57 57 63 77 77 65 66 73 74 76 75 75 70 72 63 56 72 68 68 52 49 64 59 48 60 60 51 55 66 64 72 74 71 74 76 72 73 74 76
56 57 57 57 57 57 56 64 70 71 66 69 72 71 82 85 82 86 70 71 64 73 74 69 69 56 58 59 62 67 71 63 66 68 71 72 72 75 75 75 75 77 77 76
56 57 57 57 56 55 55 62 70 69 66 60 71 83 80 86 86 85 84 78 78 78 78 70 69 60 55 63 62 64 57 55 50 59 72 73 74 75 76 76 77 76 77 77
56 56 56 56 56 55 58 65 69 73 63 58 63 71 80 86 83 82 82 79 74 75 73 71 66 73 70 73 73 66 57 52 53 52 66 57 69 75 77 75 75 76 75 76
55 55 56 55 55 54 62 56 72 76 72 60 59 75 76 82 81 79 77 78 76 76 73 72 76 78 73 67 66 71 66 69 66 59 61 74 76 77 78 76 77 77 75 77
54 54 54 55 55 59 57 58 64 59 70 60 59 66 78 82 79 77 77 80 76 75 73 72 73 75 75 69 64 65 66 69 68 73 73 73 75 73 78 78 78 74 78 75
54 53 53 54 54 54 58 69 59 62 65 66 55 63 69 80 73 71 79 75 77 75 73 75 73 75 74 65 72 75 77 77 77 78 79 78 78 79 79 80 79 77 75 73
53 53 54 59 57 60 66 60 58 66 64 57 62 58 55 79 76 77 76 76 68 78 71 72 74 69 65 71 73 74 76 75 75 79 79 80 77 76 77 76 74 72 71 71
53 54 50 54 66 57 59 62 61 61 64 62 55 65 59 61 74 72 73 73 69 65 72 78 70 68 75 77 76 75 76 77 79 75 73 74 65 73 67 69 72 69 65 64
50 49 49 66 58 67 64 56 58 61 58 64 61 63 61 74 69 69 74 65 70 63 67 68 66 63 71 76 75 77 78 79 79 79 79 79 77 71 69 67 71 69 66 59
55 55 57 68 63 57 54 54 60 60 58 66 60 63 71 73 76 69 71 66 68 60 69 61 62 59 73 75 76 77 78 79 80 80 76 78 77 72 70 73 72 71 70 68
56 52 50 53 55 41 48 48 56 58 66 66 63 61 71 65 72 68 59 62 59 74 65 64 65 68 72 74 77 77 79 79 80 79 79 77 75 75 75 73 68 73 66 69
51 49 38 48 49 55 58 60 63 69 70 68 66 61 67 71 67 68 61 68 70 59 59 60 64 68 71 74 78 77 75 76 77 74 75 71 71 67 75 75 71 71 70 71
50 56 42 53 62 67 68 72 70 72 73 71 65 62 64 66 55 66 53 58 56 62 61 61 68 69 70 71 72 73 73 71 70 71 71 71 64 59 58 71 73 74 69 66
51 55 55 63 62 64 67 70 69 73 73 71 69 62 60 51 62 61 58 57 57 63 66 69 69 68 69 70 72 72 72 70 71 68 70 69 70 62 66 73 71 67 67 66
46 57 65 66 61 62 66 70 70 74 68 61 64 55 56 65 60 60 65 62 63 68 70 71 68 68 69 70 70 70 70 70 70 70 70 69 71 71 68 65 68 68 66 67

GFSNW_sfc_temp_075.txt.gz
Temp
59 58 57 56 55 53 58 62 56 79 80 59 61 58 65 65 74 78 75 74 71 68 69 66 66 67 74 82 80 71 74 67 65 71 82 85 80 75 73 56 54 56 56 57
58 58 58 56 55 54 53 55 62 78 77 54 59 66 70 74 74 74 73 71 74 73 66 59 68 71 80 84 80 72 69 62 56 56 69 80 75 78 71 64 60 58 52 57
58 58 58 57 56 55 53 56 56 66 68 68 62 61 63 67 78 75 75 71 72 68 64 67 62 69 79 83 81 73 71 62 58 52 60 70 70 73 72 62 55 61 61 60
58 58 58 58 56 55 53 59 60 65 57 61 63 65 65 65 65 74 72 66 69 66 57 61 62 69 73 79 79 76 68 57 64 66 73 77 73 72 73 71 65 63 66 60
58 58 58 58 57 54 53 55 59 62 59 62 62 62 62 66 69 67 65 63 68 69 59 62 61 68 63 66 74 71 67 57 57 61 73 69 71 74 75 73 71 71 69 63
58 58 58 58 57 53 58 64 65 60 56 60 60 62 64 66 69 71 73 71 67 65 69 74 74 74 71 71 68 64 59 56 52 53 63 66 60 63 69 66 64 64 55 58
57 58 58 57 57 55 57 59 60 56 53 59 61 66 70 67 68 65 71 72 65 71 76 76 77 75 73 72 70 68 60 55 52 52 56 46 60 67 67 59 61 63 61 61
58 58 58 57 57 56 55 59 57 56 51 58 61 64 65 67 68 68 69 70 69 71 70 62 57 59 61 66 71 64 64 57 50 50 50 59 62 58 60 56 50 59 58 59
57 58 58 58 57 56 55 59 63 60 53 55 62 59 63 60 60 63 67 73 75 73 66 61 48 48 55 56 63 62 61 59 57 55 48 48 56 61 63 62 47 60 60 58
57 58 58 58 57 56 54 57 60 58 53 60 60 56 57 64 62 59 63 64 64 67 61 55 50 51 60 53 52 52 54 55 55 55 51 55 63 64 64 51 50 62 63 64
57 57 58 58 58 57 56 57 62 59 55 58 63 65 59 61 60 55 61 61 59 55 52 48 48 48 53 54 53 47 50 48 48 49 49 45 67 64 56 59 64 67 67 69
57 57 57 58 58 58 57 54 66 68 59 59 66 66 68 66 66 61 60 58 55 57 53 51 50 47 50 48 46 51 47 50 47 48 48 60 66 62 64 63 64 66 66 68
56 57 57 57 57 57 56 55 59 60 59 60 63 63 72 76 74 75 57 60 59 57 63 59 52 47 49 46 50 51 52 53 51 53 56 58 64 67 68 68 67 69 70 69
56 57 57 57 56 56 55 55 60 59 59 52 60 76 67 76 76 75 74 70 64 65 62 59 57 55 54 54 58 56 55 55 51 53 57 62 58 61 68 69 70 70 71 70
56 56 56 56 56 55 55 57 60 63 56 50 54 63 70 77 73 75 74 69 64 62 59 58 59 62 56 61 61 51 56 53 51 49 54 53 53 59 65 68 68 68 67 65
55 56 56 56 56 55 56 52 63 65 64 53 49 66 67 72 73 71 68 67 64 63 60 59 63 69 61 55 53 56 57 57 60 58 60 59 60 64 71 69 69 70 68 66
55 54 54 55 55 56 54 52 58 57 58 54 52 57 70 71 71 68 66 68 65 64 61 59 61 63 61 58 52 57 57 59 61 65 64 64 67 65 71 72 72 70 68 66
54 53 53 54 54 53 54 62 58 58 56 58 51 54 61 73 64 60 66 63 64 62 61 61 59 63 61 54 58 58 60 62 63 63 69 68 69 68 68 69 68 66 65 64
53 53 53 55 52 54 60 59 59 61 56 49 55 52 52 67 64 64 63 64 57 64 59 60 61 58 54 60 61 62 62 62 65 70 72 68 66 64 65 66 66 61 60 62
53 53 50 48 57 59 60 59 56 54 56 55 51 59 54 60 59 58 62 62 57 54 60 65 58 56 64 67 66 66 66 69 68 64 63 64 62 62 63 62 62 60 58 59
49 48 47 59 59 62 59 53 52 54 53 58 58 59 54 60 55 54 61 57 59 53 58 58 56 54 60 66 66 68 70 69 69 69 69 68 66 63 62 63 63 61 59 57
50 53 57 61 59 55 51 51 55 55 53 60 58 58 58 60 62 58 60 57 59 54 61 56 52 55 64 66 68 70 70 72 72 73 70 71 68 67 65 66 64 63 62 61
53 52 50 49 51 40 45 45 51 53 60 61 60 57 60 61 64 59 56 53 55 63 56 53 56 60 64 65 68 70 71 73 69 70 71 68 67 67 59 57 60 65 64 64
46 46 37 43 45 50 52 54 58 62 63 63 61 59 56 60 58 56 47 52 57 53 50 53 54 60 63 66 68 67 66 67 68 67 68 66 62 59 59 59 58 58 63 63
48 52 40 48 55 60 63 65 64 65 66 64 60 59 57 56 57 57 53 49 52 57 52 54 59 61 62 62 64 61 64 64 64 64 65 63 60 57 56 57 56 56 61 61
49 52 50 55 56 58 61 63 60 66 66 66 62 58 54 52 53 51 51 49 52 53 57 60 61 61 62 62 63 63 64 63 63 63 64 64 63 60 58 56 59 56 61 62
46 48 56 55 54 58 60 62 64 66 63 58 59 53 53 53 50 49 52 55 56 60 61 60 62 61 62 61 62 64 64 63 63 63 63 62 63 64 62 59 59 61 60 59